Time,TemperatureF,DewpointF,PressureIn,WindDirection,WindDirectionDegrees,WindSpeedMPH,WindSpeedGustMPH,Humidity,HourlyPrecipIn,Conditions,Clouds,dailyrainin,SoftwareType,DateUTC
2013-07-14 00:01:00,63.7,59.4,30.22,NNE,23,0.0,0.0,86,0.00,,---,0.00,VWS V14.01,2013-07-14 04:01:00,
2013-07-14 00:07:00,63.5,59.2,30.22,NNE,23,0.0,0.0,86,0.00,,---,0.00,VWS V14.01,2013-07-14 04:07:00,
2013-07-14 00:12:00,63.5,59.6,30.22,NNE,23,0.0,0.0,87,0.00,,---,0.00,VWS V14.01,2013-07-14 04:12:00,
2013-07-14 00:17:00,63.4,59.5,30.22,NNE,23,0.0,0.0,87,0.00,,---,0.00,VWS V14.01,2013-07-14 04:17:00,
2013-07-14 00:22:00,63.2,59.3,30.22,NNE,23,0.0,0.0,87,0.00,,---,0.00,VWS V14.01,2013-07-14 04:22:00,
2013-07-14 00:27:00,63.2,59.3,30.22,NNE,23,0.0,0.0,87,0.00,,---,0.00,VWS V14.01,2013-07-14 04:27:00,
2013-07-14 00:32:00,63.1,58.8,30.22,NNE,23,0.0,0.0,86,0.00,,---,0.00,VWS V14.01,2013-07-14 04:32:00,
2013-07-14 00:37:00,62.9,59.0,30.22,NNE,23,0.0,0.0,87,0.00,,---,0.00,VWS V14.01,2013-07-14 04:37:00,
2013-07-14 00:42:00,62.9,59.3,30.22,NNE,23,0.0,0.0,88,0.00,,---,0.00,VWS V14.01,2013-07-14 04:42:00,
2013-07-14 00:47:00,62.9,59.6,30.22,NNE,23,0.0,0.0,89,0.00,,---,0.00,VWS V14.01,2013-07-14 04:47:00,
2013-07-14 00:52:00,62.9,59.6,30.22,NNE,23,0.0,0.0,89,0.00,,---,0.00,VWS V14.01,2013-07-14 04:52:00,
2013-07-14 00:57:00,62.7,59.4,30.22,NNE,23,0.0,0.0,89,0.00,,---,0.00,VWS V14.01,2013-07-14 04:57:00,
2013-07-14 01:02:00,62.7,59.4,30.22,NNE,23,0.0,0.0,89,0.00,,---,0.00,VWS V14.01,2013-07-14 05:02:00,
2013-07-14 01:07:00,62.7,59.4,30.22,NNE,23,0.0,0.0,89,0.00,,---,0.00,VWS V14.01,2013-07-14 05:07:00,
2013-07-14 01:12:00,62.7,59.4,30.22,NNE,23,0.0,0.0,89,0.00,,---,0.00,VWS V14.01,2013-07-14 05:12:00,
2013-07-14 01:17:00,62.7,59.4,30.22,NNE,23,0.0,0.0,89,0.00,,---,0.00,VWS V14.01,2013-07-14 05:17:00,
2013-07-14 01:22:00,62.7,59.4,30.22,NNE,23,0.0,0.0,89,0.00,,---,0.00,VWS V14.01,2013-07-14 05:22:00,
2013-07-14 01:27:00,62.7,59.4,30.23,NNE,23,0.0,0.0,89,0.00,,---,0.00,VWS V14.01,2013-07-14 05:27:00,
2013-07-14 01:32:00,62.6,59.3,30.23,NNE,23,0.0,0.0,89,0.00,,---,0.00,VWS V14.01,2013-07-14 05:32:00,
2013-07-14 01:37:00,62.6,59.6,30.23,NNE,23,0.0,0.0,90,0.00,,---,0.00,VWS V14.01,2013-07-14 05:37:00,
2013-07-14 01:42:00,62.6,59.6,30.23,NNE,23,0.0,0.0,90,0.00,,---,0.00,VWS V14.01,2013-07-14 05:42:00,
2013-07-14 01:47:00,62.4,59.7,30.23,NNE,23,0.0,0.0,91,0.00,,---,0.00,VWS V14.01,2013-07-14 05:47:00,
2013-07-14 01:52:00,62.4,59.7,30.24,NNE,23,0.0,0.0,91,0.00,,---,0.00,VWS V14.01,2013-07-14 05:52:00,
2013-07-14 01:57:00,62.0,59.0,30.24,NNE,23,0.0,0.0,90,0.00,,---,0.00,VWS V14.01,2013-07-14 05:57:00,
2013-07-14 02:02:00,61.8,58.8,30.24,NNE,23,0.0,0.0,90,0.00,,---,0.00,VWS V14.01,2013-07-14 06:02:00,
2013-07-14 02:07:00,61.6,58.6,30.24,NNE,23,0.0,0.0,90,0.00,,---,0.00,VWS V14.01,2013-07-14 06:07:00,
2013-07-14 02:12:00,61.5,58.8,30.24,NNE,23,0.0,0.0,91,0.00,,---,0.00,VWS V14.01,2013-07-14 06:12:00,
2013-07-14 02:17:00,61.3,58.7,30.24,NNE,23,0.0,0.0,91,0.00,,---,0.00,VWS V14.01,2013-07-14 06:17:00,
2013-07-14 02:22:00,61.0,58.4,30.24,NNE,23,0.0,0.0,91,0.00,,---,0.00,VWS V14.01,2013-07-14 06:22:00,
2013-07-14 02:27:00,60.9,58.6,30.24,NNE,23,0.0,0.0,92,0.00,,---,0.00,VWS V14.01,2013-07-14 06:27:00,
2013-07-14 02:32:00,60.9,58.6,30.24,NNE,23,0.0,0.0,92,0.00,,---,0.00,VWS V14.01,2013-07-14 06:32:00,
2013-07-14 02:37:00,60.5,58.2,30.24,NNE,23,0.0,0.0,92,0.00,,---,0.00,VWS V14.01,2013-07-14 06:37:00,
2013-07-14 02:42:00,60.5,58.2,30.24,NNE,23,0.0,0.0,92,0.00,,---,0.00,VWS V14.01,2013-07-14 06:42:00,
2013-07-14 02:48:00,60.4,58.4,30.24,NNE,23,0.0,0.0,93,0.00,,---,0.00,VWS V14.01,2013-07-14 06:48:00,
2013-07-14 02:53:00,60.4,58.4,30.24,NNE,23,0.0,0.0,93,0.00,,---,0.00,VWS V14.01,2013-07-14 06:53:00,
2013-07-14 02:58:00,60.4,58.7,30.24,NNE,23,0.0,0.0,94,0.00,,---,0.00,VWS V14.01,2013-07-14 06:58:00,
2013-07-14 03:03:00,60.4,58.7,30.24,NNE,23,0.0,0.0,94,0.00,,---,0.00,VWS V14.01,2013-07-14 07:03:00,
2013-07-14 03:08:00,60.5,58.8,30.24,NNE,23,0.0,0.0,94,0.00,,---,0.00,VWS V14.01,2013-07-14 07:08:00,
2013-07-14 03:13:00,60.5,58.8,30.24,NNE,23,0.0,0.0,94,0.00,,---,0.00,VWS V14.01,2013-07-14 07:13:00,
2013-07-14 03:18:00,60.5,58.8,30.25,NNE,23,0.0,0.0,94,0.00,,---,0.00,VWS V14.01,2013-07-14 07:18:00,
2013-07-14 03:23:00,60.5,58.8,30.25,NNE,23,0.0,0.0,94,0.00,,---,0.00,VWS V14.01,2013-07-14 07:23:00,
2013-07-14 03:28:00,60.7,59.3,30.25,NNE,23,0.0,0.0,95,0.00,,---,0.00,VWS V14.01,2013-07-14 07:28:00,
2013-07-14 03:33:00,60.7,59.3,30.25,NNE,23,0.0,0.0,95,0.00,,---,0.00,VWS V14.01,2013-07-14 07:33:00,
2013-07-14 03:38:00,60.7,59.3,30.25,NNE,23,0.0,0.0,95,0.00,,---,0.00,VWS V14.01,2013-07-14 07:38:00,
2013-07-14 03:43:00,60.7,59.3,30.25,NNE,23,0.0,0.0,95,0.00,,---,0.00,VWS V14.01,2013-07-14 07:43:00,
2013-07-14 03:48:00,60.7,59.3,30.25,NNE,23,0.0,0.0,95,0.00,,---,0.00,VWS V14.01,2013-07-14 07:48:00,
2013-07-14 03:53:00,60.7,59.3,30.25,NNE,23,0.0,0.0,95,0.00,,---,0.00,VWS V14.01,2013-07-14 07:53:00,
2013-07-14 03:58:00,60.7,59.3,30.25,NNE,23,0.0,0.0,95,0.00,,---,0.00,VWS V14.01,2013-07-14 07:58:00,
2013-07-14 04:03:00,60.5,59.1,30.25,NNE,23,0.0,0.0,95,0.00,,---,0.00,VWS V14.01,2013-07-14 08:03:00,
2013-07-14 04:08:00,60.5,59.1,30.25,NNE,23,0.0,0.0,95,0.00,,---,0.00,VWS V14.01,2013-07-14 08:08:00,
2013-07-14 04:13:00,60.5,59.1,30.25,NNE,23,0.0,0.0,95,0.00,,---,0.00,VWS V14.01,2013-07-14 08:13:00,
2013-07-14 04:18:00,60.5,59.1,30.25,NNE,23,0.0,0.0,95,0.00,,---,0.00,VWS V14.01,2013-07-14 08:18:00,
2013-07-14 04:23:00,60.4,59.0,30.25,NNE,23,0.0,0.0,95,0.00,,---,0.00,VWS V14.01,2013-07-14 08:23:00,
2013-07-14 04:28:00,60.4,59.0,30.25,NNE,23,0.0,0.0,95,0.00,,---,0.00,VWS V14.01,2013-07-14 08:28:00,
2013-07-14 04:33:00,60.4,59.0,30.25,NNE,23,0.0,0.0,95,0.00,,---,0.00,VWS V14.01,2013-07-14 08:33:00,
2013-07-14 04:38:00,60.4,59.0,30.25,NNE,23,0.0,0.0,95,0.00,,---,0.00,VWS V14.01,2013-07-14 08:38:00,
2013-07-14 04:43:00,60.2,58.8,30.26,NNE,23,0.0,0.0,95,0.00,,---,0.00,VWS V14.01,2013-07-14 08:43:00,
2013-07-14 04:48:00,60.2,58.8,30.25,NNE,23,0.0,0.0,95,0.00,,---,0.00,VWS V14.01,2013-07-14 08:48:00,
2013-07-14 04:53:00,60.2,58.8,30.26,NNE,23,0.0,0.0,95,0.00,,---,0.00,VWS V14.01,2013-07-14 08:53:00,
2013-07-14 04:58:00,60.2,59.1,30.26,NNE,23,0.0,0.0,96,0.00,,---,0.00,VWS V14.01,2013-07-14 08:58:00,
2013-07-14 05:03:00,60.2,59.1,30.25,NNE,23,0.0,0.0,96,0.00,,---,0.00,VWS V14.01,2013-07-14 09:03:00,
2013-07-14 05:08:00,60.2,59.1,30.26,NNE,23,0.0,0.0,96,0.00,,---,0.00,VWS V14.01,2013-07-14 09:08:00,
2013-07-14 05:13:00,60.2,59.1,30.26,NNE,23,0.0,0.0,96,0.00,,---,0.00,VWS V14.01,2013-07-14 09:13:00,
2013-07-14 05:18:00,60.2,59.1,30.26,NNE,23,0.0,0.0,96,0.00,,---,0.00,VWS V14.01,2013-07-14 09:18:00,
2013-07-14 05:23:00,60.1,59.0,30.26,NNE,23,0.0,0.0,96,0.00,,---,0.00,VWS V14.01,2013-07-14 09:23:00,
2013-07-14 05:28:00,60.1,59.0,30.25,NNE,23,0.0,0.0,96,0.01,,---,0.01,VWS V14.01,2013-07-14 09:28:00,
2013-07-14 05:33:00,59.9,58.8,30.26,NNE,23,0.0,0.0,96,0.01,,---,0.01,VWS V14.01,2013-07-14 09:33:00,
2013-07-14 05:38:00,59.8,58.4,30.25,NNE,23,0.0,0.0,95,0.01,,---,0.01,VWS V14.01,2013-07-14 09:38:00,
2013-07-14 05:43:00,59.6,58.2,30.25,NNE,23,0.0,0.0,95,0.01,,---,0.01,VWS V14.01,2013-07-14 09:43:00,
2013-07-14 05:48:00,59.5,58.1,30.25,NNE,23,0.0,0.0,95,0.01,,---,0.01,VWS V14.01,2013-07-14 09:48:00,
2013-07-14 05:53:00,59.3,58.2,30.25,NNE,23,0.0,0.0,96,0.01,,---,0.01,VWS V14.01,2013-07-14 09:53:00,
2013-07-14 05:58:00,59.3,58.2,30.25,NNE,23,0.0,0.0,96,0.01,,---,0.01,VWS V14.01,2013-07-14 09:58:00,
2013-07-14 06:03:00,59.2,58.1,30.25,NNE,23,0.0,0.0,96,0.01,,---,0.01,VWS V14.01,2013-07-14 10:03:00,
2013-07-14 06:08:00,59.2,58.1,30.26,NNE,23,0.0,0.0,96,0.01,,---,0.01,VWS V14.01,2013-07-14 10:08:00,
2013-07-14 06:14:00,59.2,58.1,30.26,NNE,24,0.0,0.0,96,0.01,,---,0.01,VWS V14.01,2013-07-14 10:14:00,
2013-07-14 06:19:00,59.0,57.9,30.25,NNE,23,0.0,0.0,96,0.01,,---,0.01,VWS V14.01,2013-07-14 10:19:00,
2013-07-14 06:24:00,58.9,57.8,30.26,NNE,23,0.0,0.0,96,0.01,,---,0.01,VWS V14.01,2013-07-14 10:24:00,
2013-07-14 06:29:00,58.9,57.8,30.26,NNE,23,0.0,0.0,96,0.01,,---,0.01,VWS V14.01,2013-07-14 10:29:00,
2013-07-14 06:34:00,58.7,57.6,30.26,NNE,23,0.0,0.0,96,0.00,,---,0.01,VWS V14.01,2013-07-14 10:34:00,
2013-07-14 06:39:00,58.6,57.5,30.26,NNE,23,0.0,0.0,96,0.00,,---,0.01,VWS V14.01,2013-07-14 10:39:00,
2013-07-14 06:43:00,58.4,57.0,30.26,NNE,23,0.0,0.0,95,0.00,,---,0.01,VWS V14.01,2013-07-14 10:43:00,
2013-07-14 06:49:00,58.4,57.3,30.26,NNE,23,0.0,0.0,96,0.00,,---,0.01,VWS V14.01,2013-07-14 10:49:00,
2013-07-14 06:54:00,58.3,56.9,30.27,NNE,23,0.0,0.0,95,0.00,,---,0.01,VWS V14.01,2013-07-14 10:54:00,
2013-07-14 06:59:00,58.3,57.2,30.27,ENE,68,0.0,0.0,96,0.00,,---,0.01,VWS V14.01,2013-07-14 10:59:00,
2013-07-14 07:04:00,58.4,57.3,30.27,SE,145,0.0,0.0,96,0.00,,---,0.01,VWS V14.01,2013-07-14 11:04:00,
2013-07-14 07:09:00,58.4,57.3,30.27,SE,145,0.0,0.0,96,0.00,,---,0.01,VWS V14.01,2013-07-14 11:09:00,
2013-07-14 07:14:00,58.6,57.5,30.27,SE,145,0.0,0.0,96,0.00,,---,0.01,VWS V14.01,2013-07-14 11:14:00,
2013-07-14 07:19:00,59.5,58.7,30.27,SSW,192,0.0,0.0,97,0.00,,---,0.01,VWS V14.01,2013-07-14 11:19:00,
2013-07-14 07:24:00,60.4,59.8,30.27,SSW,198,0.0,0.0,98,0.00,,---,0.01,VWS V14.01,2013-07-14 11:24:00,
2013-07-14 07:29:00,61.3,60.7,30.26,SSW,198,0.0,0.0,98,0.00,,---,0.01,VWS V14.01,2013-07-14 11:29:00,
2013-07-14 07:34:00,62.0,61.4,30.27,SSW,199,0.0,0.0,98,0.00,,---,0.01,VWS V14.01,2013-07-14 11:34:00,
2013-07-14 07:39:00,62.9,62.3,30.27,SSW,199,0.0,0.0,98,0.00,,---,0.01,VWS V14.01,2013-07-14 11:39:00,
2013-07-14 07:44:00,63.5,62.6,30.27,SSW,198,0.0,0.0,97,0.00,,---,0.01,VWS V14.01,2013-07-14 11:44:00,
2013-07-14 07:49:00,64.2,62.1,30.27,SSW,208,0.0,0.0,93,0.00,,---,0.01,VWS V14.01,2013-07-14 11:49:00,
2013-07-14 07:54:00,65.3,62.3,30.27,SW,224,0.0,0.0,90,0.00,,---,0.01,VWS V14.01,2013-07-14 11:54:00,
2013-07-14 07:59:00,66.4,62.1,30.27,SW,217,0.0,0.0,86,0.00,,---,0.01,VWS V14.01,2013-07-14 11:59:00,
2013-07-14 08:04:00,67.6,61.9,30.27,South,185,0.0,0.0,82,0.00,,---,0.01,VWS V14.01,2013-07-14 12:04:00,
2013-07-14 08:09:00,68.4,61.6,30.27,South,188,0.0,0.0,79,0.00,,---,0.01,VWS V14.01,2013-07-14 12:09:00,
2013-07-14 08:14:00,69.3,62.2,30.27,South,180,0.0,0.0,78,0.00,,---,0.01,VWS V14.01,2013-07-14 12:14:00,
2013-07-14 08:19:00,70.1,61.8,30.27,SSW,212,0.0,0.0,75,0.00,,---,0.01,VWS V14.01,2013-07-14 12:19:00,
2013-07-14 08:24:00,70.4,61.3,30.27,SW,228,0.0,0.0,73,0.00,,---,0.01,VWS V14.01,2013-07-14 12:24:00,
2013-07-14 08:29:00,70.9,61.4,30.27,SW,236,0.0,0.0,72,0.00,,---,0.01,VWS V14.01,2013-07-14 12:29:00,
2013-07-14 08:34:00,71.3,62.6,30.27,SSE,148,0.0,0.0,74,0.00,,---,0.01,VWS V14.01,2013-07-14 12:34:00,
2013-07-14 08:39:00,72.1,63.0,30.27,SSE,167,0.0,0.0,73,0.00,,---,0.01,VWS V14.01,2013-07-14 12:39:00,
2013-07-14 08:44:00,72.8,63.3,30.27,SSW,194,0.0,0.0,72,0.00,,---,0.01,VWS V14.01,2013-07-14 12:44:00,
2013-07-14 08:49:00,73.3,62.9,30.27,SSE,167,0.0,0.0,70,0.00,,---,0.01,VWS V14.01,2013-07-14 12:49:00,
2013-07-14 08:54:00,73.7,62.5,30.27,SE,144,0.0,0.0,68,0.00,,---,0.01,VWS V14.01,2013-07-14 12:54:00,
2013-07-14 08:59:00,74.2,63.0,30.27,SSW,205,0.0,0.0,68,0.00,,---,0.01,VWS V14.01,2013-07-14 12:59:00,
2013-07-14 09:04:00,74.6,63.3,30.27,SW,228,0.0,0.0,68,0.00,,---,0.01,VWS V14.01,2013-07-14 13:04:00,
2013-07-14 09:09:00,74.6,63.3,30.27,SSW,210,0.0,0.0,68,0.00,,---,0.01,VWS V14.01,2013-07-14 13:09:00,
2013-07-14 09:14:00,74.9,64.1,30.27,SSW,213,0.0,0.0,69,0.00,,---,0.01,VWS V14.01,2013-07-14 13:14:00,
2013-07-14 09:19:00,75.4,63.3,30.27,SSW,193,0.0,0.0,66,0.00,,---,0.01,VWS V14.01,2013-07-14 13:19:00,
2013-07-14 09:24:00,76.0,63.8,30.27,SSW,209,0.0,0.0,66,0.00,,---,0.01,VWS V14.01,2013-07-14 13:24:00,
2013-07-14 09:29:00,76.3,63.2,30.27,SSW,210,0.0,0.0,64,0.00,,---,0.01,VWS V14.01,2013-07-14 13:29:00,
2013-07-14 09:34:00,77.0,64.3,30.27,South,188,0.0,0.0,65,0.00,,---,0.01,VWS V14.01,2013-07-14 13:34:00,
2013-07-14 09:39:00,77.6,64.0,30.27,SSW,205,0.0,0.0,63,0.00,,---,0.01,VWS V14.01,2013-07-14 13:39:00,
2013-07-14 09:44:00,77.7,64.6,30.27,SSW,193,0.0,0.0,64,0.00,,---,0.01,VWS V14.01,2013-07-14 13:44:00,
2013-07-14 09:49:00,78.5,66.2,30.27,North,5,0.0,0.0,66,0.00,,---,0.01,VWS V14.01,2013-07-14 13:49:00,
2013-07-14 09:54:00,78.8,65.2,30.27,SW,223,0.0,0.0,63,0.00,,---,0.01,VWS V14.01,2013-07-14 13:54:00,
2013-07-14 09:59:00,79.2,65.1,30.27,SSW,209,0.0,0.0,62,0.00,,---,0.01,VWS V14.01,2013-07-14 13:59:00,
2013-07-14 10:04:00,79.6,64.5,30.27,SW,233,0.0,0.0,60,0.00,,---,0.01,VWS V14.01,2013-07-14 14:04:00,
2013-07-14 10:09:00,79.6,64.5,30.27,SW,224,0.0,0.0,60,0.00,,---,0.01,VWS V14.01,2013-07-14 14:09:00,
2013-07-14 10:14:00,79.9,65.7,30.27,SSW,196,0.0,0.0,62,0.00,,---,0.01,VWS V14.01,2013-07-14 14:14:00,
2013-07-14 10:19:00,80.3,65.6,30.27,SSW,209,0.0,0.0,61,0.00,,---,0.01,VWS V14.01,2013-07-14 14:19:00,
2013-07-14 10:24:00,80.7,65.1,30.27,SSW,212,0.0,0.0,59,0.00,,---,0.01,VWS V14.01,2013-07-14 14:24:00,
2013-07-14 10:29:00,81.1,65.4,30.27,SSW,196,0.0,0.0,59,0.00,,---,0.01,VWS V14.01,2013-07-14 14:29:00,
2013-07-14 10:35:00,81.4,63.7,30.27,West,264,0.0,0.0,55,0.00,,---,0.01,VWS V14.01,2013-07-14 14:35:00,
2013-07-14 10:40:00,81.8,65.6,30.27,West,271,0.0,0.0,58,0.00,,---,0.01,VWS V14.01,2013-07-14 14:40:00,
2013-07-14 10:45:00,82.2,64.4,30.27,SSW,209,0.0,0.0,55,0.00,,---,0.01,VWS V14.01,2013-07-14 14:45:00,
2013-07-14 10:50:00,82.2,65.0,30.27,West,264,0.0,0.0,56,0.00,,---,0.01,VWS V14.01,2013-07-14 14:50:00,
2013-07-14 10:55:00,82.2,64.4,30.27,WSW,250,0.0,0.0,55,0.00,,---,0.01,VWS V14.01,2013-07-14 14:55:00,
2013-07-14 11:00:00,82.0,64.3,30.27,WNW,287,0.0,0.0,55,0.00,,---,0.01,VWS V14.01,2013-07-14 15:00:00,
2013-07-14 11:05:00,82.0,64.3,30.27,WSW,253,0.0,0.0,55,0.00,,---,0.01,VWS V14.01,2013-07-14 15:05:00,
2013-07-14 11:10:00,82.0,64.8,30.27,WSW,252,0.0,0.0,56,0.00,,---,0.01,VWS V14.01,2013-07-14 15:10:00,
2013-07-14 11:15:00,82.6,64.8,30.27,SW,227,0.0,0.0,55,0.00,,---,0.01,VWS V14.01,2013-07-14 15:15:00,
2013-07-14 11:20:00,83.0,65.7,30.27,WNW,296,0.0,0.0,56,0.00,,---,0.01,VWS V14.01,2013-07-14 15:20:00,
2013-07-14 11:25:00,83.2,63.8,30.27,WSW,254,0.0,0.0,52,0.00,,---,0.01,VWS V14.01,2013-07-14 15:25:00,
2013-07-14 11:30:00,83.2,64.8,30.27,West,274,0.0,0.0,54,0.00,,---,0.01,VWS V14.01,2013-07-14 15:30:00,
2013-07-14 11:35:00,83.6,65.2,30.27,NW,323,0.0,0.0,54,0.00,,---,0.01,VWS V14.01,2013-07-14 15:35:00,
2013-07-14 11:40:00,83.8,63.8,30.27,SW,231,0.0,0.0,51,0.00,,---,0.01,VWS V14.01,2013-07-14 15:40:00,
2013-07-14 11:45:00,83.8,63.2,30.27,SW,236,0.0,0.0,50,0.00,,---,0.01,VWS V14.01,2013-07-14 15:45:00,
2013-07-14 11:50:00,84.0,65.6,30.27,West,277,0.0,0.0,54,0.00,,---,0.01,VWS V14.01,2013-07-14 15:50:00,
2013-07-14 11:55:00,84.1,65.1,30.27,NW,315,0.0,0.0,53,0.00,,---,0.01,VWS V14.01,2013-07-14 15:55:00,
2013-07-14 12:00:00,84.5,64.4,30.27,West,275,0.0,0.0,51,0.00,,---,0.01,VWS V14.01,2013-07-14 16:00:00,
2013-07-14 12:05:00,84.5,62.7,30.27,NW,311,0.0,0.0,48,0.00,,---,0.01,VWS V14.01,2013-07-14 16:05:00,
2013-07-14 12:10:00,84.3,64.2,30.27,NW,314,0.0,0.0,51,0.00,,---,0.01,VWS V14.01,2013-07-14 16:10:00,
2013-07-14 12:15:00,84.5,62.1,30.27,WNW,302,0.0,0.0,47,0.00,,---,0.01,VWS V14.01,2013-07-14 16:15:00,
2013-07-14 12:20:00,84.1,61.1,30.27,NW,308,0.0,0.0,46,0.00,,---,0.01,VWS V14.01,2013-07-14 16:20:00,
2013-07-14 12:25:00,84.5,62.1,30.27,NW,325,0.0,0.0,47,0.00,,---,0.01,VWS V14.01,2013-07-14 16:25:00,
2013-07-14 12:30:00,84.3,60.7,30.27,NNW,342,0.0,0.0,45,0.00,,---,0.01,VWS V14.01,2013-07-14 16:30:00,
2013-07-14 12:35:00,84.5,62.1,30.27,NW,321,0.0,0.0,47,0.00,,---,0.01,VWS V14.01,2013-07-14 16:35:00,
2013-07-14 12:40:00,84.9,63.0,30.27,WNW,302,0.0,0.0,48,0.00,,---,0.01,VWS V14.01,2013-07-14 16:40:00,
2013-07-14 12:45:00,85.1,63.2,30.27,West,279,0.0,0.0,48,0.00,,---,0.01,VWS V14.01,2013-07-14 16:45:00,
2013-07-14 12:50:00,85.5,63.6,30.27,WSW,244,0.0,0.0,48,0.00,,---,0.01,VWS V14.01,2013-07-14 16:50:00,
2013-07-14 12:55:00,85.7,63.8,30.27,NW,317,0.0,0.0,48,0.00,,---,0.01,VWS V14.01,2013-07-14 16:55:00,
2013-07-14 13:00:00,85.9,65.1,30.27,SW,234,0.0,0.0,50,0.00,,---,0.01,VWS V14.01,2013-07-14 17:00:00,
2013-07-14 13:05:00,85.7,61.3,30.27,NW,314,0.0,0.0,44,0.00,,---,0.01,VWS V14.01,2013-07-14 17:05:00,
2013-07-14 13:10:00,85.3,62.8,30.27,SSW,210,0.0,0.0,47,0.00,,---,0.01,VWS V14.01,2013-07-14 17:10:00,
2013-07-14 13:15:00,85.1,61.4,30.27,WNW,285,0.0,0.0,45,0.00,,---,0.01,VWS V14.01,2013-07-14 17:15:00,
2013-07-14 13:20:00,84.7,62.9,30.27,WNW,292,0.0,0.0,48,0.00,,---,0.01,VWS V14.01,2013-07-14 17:20:00,
2013-07-14 13:25:00,84.7,62.9,30.27,SW,219,0.0,0.0,48,0.00,,---,0.01,VWS V14.01,2013-07-14 17:25:00,
2013-07-14 13:30:00,85.5,61.8,30.27,NW,306,0.0,0.0,45,0.00,,---,0.01,VWS V14.01,2013-07-14 17:30:00,
2013-07-14 13:35:00,85.7,63.2,30.27,NW,306,0.0,0.0,47,0.00,,---,0.01,VWS V14.01,2013-07-14 17:35:00,
2013-07-14 13:41:00,85.9,63.3,30.26,NNW,327,0.0,0.0,47,0.00,,---,0.01,VWS V14.01,2013-07-14 17:41:00,
2013-07-14 13:46:00,86.1,62.9,30.27,West,259,0.0,0.0,46,0.00,,---,0.01,VWS V14.01,2013-07-14 17:46:00,
2013-07-14 13:51:00,86.7,61.5,30.27,NW,312,0.0,0.0,43,0.00,,---,0.01,VWS V14.01,2013-07-14 17:51:00,
2013-07-14 13:56:00,86.5,62.7,30.27,ESE,114,0.0,0.0,45,0.00,,---,0.01,VWS V14.01,2013-07-14 17:56:00,
2013-07-14 14:01:00,86.3,62.5,30.27,SW,234,0.0,0.0,45,0.00,,---,0.01,VWS V14.01,2013-07-14 18:01:00,
2013-07-14 14:06:00,86.3,63.1,30.26,SSE,160,0.0,0.0,46,0.00,,---,0.01,VWS V14.01,2013-07-14 18:06:00,
2013-07-14 14:11:00,86.1,62.3,30.26,NNW,332,0.0,0.0,45,0.00,,---,0.01,VWS V14.01,2013-07-14 18:11:00,
2013-07-14 14:16:00,85.9,64.0,30.26,NNW,332,0.0,0.0,48,0.00,,---,0.01,VWS V14.01,2013-07-14 18:16:00,
2013-07-14 14:21:00,86.3,61.8,30.26,NE,53,0.0,0.0,44,0.00,,---,0.01,VWS V14.01,2013-07-14 18:21:00,
2013-07-14 14:26:00,87.4,62.2,30.26,NE,36,0.0,0.0,43,0.00,,---,0.01,VWS V14.01,2013-07-14 18:26:00,
2013-07-14 14:31:00,87.4,62.8,30.26,NE,44,0.0,0.0,44,0.00,,---,0.01,VWS V14.01,2013-07-14 18:31:00,
2013-07-14 14:36:00,87.8,63.2,30.26,NW,315,0.0,0.0,44,0.00,,---,0.01,VWS V14.01,2013-07-14 18:36:00,
2013-07-14 14:41:00,88.0,64.7,30.26,NW,314,0.0,0.0,46,0.00,,---,0.01,VWS V14.01,2013-07-14 18:41:00,
2013-07-14 14:46:00,87.8,61.9,30.26,NNW,327,0.0,0.0,42,0.00,,---,0.01,VWS V14.01,2013-07-14 18:46:00,
2013-07-14 14:51:00,87.4,65.3,30.25,North,351,0.0,0.0,48,0.00,,---,0.01,VWS V14.01,2013-07-14 18:51:00,
2013-07-14 14:56:00,86.5,65.1,30.26,NNE,22,0.0,0.0,49,0.00,,---,0.01,VWS V14.01,2013-07-14 18:56:00,
2013-07-14 15:01:00,86.3,62.5,30.25,NNE,22,0.0,0.0,45,0.00,,---,0.01,VWS V14.01,2013-07-14 19:01:00,
2013-07-14 15:06:00,87.0,66.1,30.25,NNE,23,0.0,0.0,50,0.00,,---,0.01,VWS V14.01,2013-07-14 19:06:00,
2013-07-14 15:11:00,87.2,62.7,30.25,NE,38,0.0,0.0,44,0.00,,---,0.01,VWS V14.01,2013-07-14 19:11:00,
2013-07-14 15:16:00,87.6,64.3,30.25,NW,322,0.0,0.0,46,0.00,,---,0.01,VWS V14.01,2013-07-14 19:16:00,
2013-07-14 15:21:00,88.0,64.0,30.25,WNW,294,0.0,0.0,45,0.00,,---,0.01,VWS V14.01,2013-07-14 19:21:00,
2013-07-14 15:26:00,87.0,65.6,30.25,North,360,0.0,0.0,49,0.00,,---,0.01,VWS V14.01,2013-07-14 19:26:00,
2013-07-14 15:31:00,86.1,65.9,30.25,NNE,18,0.0,0.0,51,0.00,,---,0.01,VWS V14.01,2013-07-14 19:31:00,
2013-07-14 15:36:00,85.7,64.9,30.25,North,350,0.0,0.0,50,0.00,,---,0.01,VWS V14.01,2013-07-14 19:36:00,
2013-07-14 15:41:00,85.5,65.3,30.25,NE,41,0.0,0.0,51,0.00,,---,0.01,VWS V14.01,2013-07-14 19:41:00,
2013-07-14 15:46:00,84.7,64.6,30.25,North,5,0.0,0.0,51,0.00,,---,0.01,VWS V14.01,2013-07-14 19:46:00,
2013-07-14 15:51:00,84.3,65.3,30.25,NE,45,0.0,0.0,53,0.00,,---,0.01,VWS V14.01,2013-07-14 19:51:00,
2013-07-14 15:56:00,84.0,65.6,30.25,NNE,14,0.0,0.0,54,0.00,,---,0.01,VWS V14.01,2013-07-14 19:56:00,
2013-07-14 16:01:00,84.0,66.1,30.25,North,5,0.0,0.0,55,0.00,,---,0.01,VWS V14.01,2013-07-14 20:01:00,
2013-07-14 16:06:00,83.8,65.4,30.25,NNE,30,0.0,0.0,54,0.00,,---,0.01,VWS V14.01,2013-07-14 20:06:00,
2013-07-14 16:11:00,84.0,65.1,30.25,NNW,344,0.0,0.0,53,0.00,,---,0.01,VWS V14.01,2013-07-14 20:11:00,
2013-07-14 16:16:00,84.0,65.1,30.25,NE,34,0.0,0.0,53,0.00,,---,0.01,VWS V14.01,2013-07-14 20:16:00,
2013-07-14 16:21:00,84.0,65.6,30.25,NNE,12,0.0,0.0,54,0.00,,---,0.01,VWS V14.01,2013-07-14 20:21:00,
2013-07-14 16:26:00,84.0,63.9,30.25,NNE,25,0.0,0.0,51,0.00,,---,0.01,VWS V14.01,2013-07-14 20:26:00,
2013-07-14 16:31:00,84.0,65.6,30.25,NNE,30,0.0,0.0,54,0.00,,---,0.01,VWS V14.01,2013-07-14 20:31:00,
2013-07-14 16:36:00,84.0,64.5,30.25,NE,41,0.0,0.0,52,0.00,,---,0.01,VWS V14.01,2013-07-14 20:36:00,
2013-07-14 16:41:00,84.0,64.5,30.25,North,360,0.0,0.0,52,0.00,,---,0.01,VWS V14.01,2013-07-14 20:41:00,
2013-07-14 16:46:00,84.1,63.5,30.25,NE,36,0.0,0.0,50,0.00,,---,0.01,VWS V14.01,2013-07-14 20:46:00,
2013-07-14 16:51:00,84.1,64.6,30.25,NNE,30,0.0,0.0,52,0.00,,---,0.01,VWS V14.01,2013-07-14 20:51:00,
2013-07-14 16:56:00,84.1,64.6,30.25,NE,38,0.0,0.0,52,0.00,,---,0.01,VWS V14.01,2013-07-14 20:56:00,
2013-07-14 17:01:00,84.0,63.9,30.24,NE,46,0.0,0.0,51,0.00,,---,0.01,VWS V14.01,2013-07-14 21:01:00,
2013-07-14 17:06:00,83.8,63.2,30.24,NNE,25,0.0,0.0,50,0.00,,---,0.01,VWS V14.01,2013-07-14 21:06:00,
2013-07-14 17:11:00,83.8,64.9,30.25,NNE,16,0.0,0.0,53,0.00,,---,0.01,VWS V14.01,2013-07-14 21:11:00,
2013-07-14 17:16:00,84.0,65.1,30.24,NE,49,0.0,0.0,53,0.00,,---,0.01,VWS V14.01,2013-07-14 21:16:00,
2013-07-14 17:21:00,84.3,63.7,30.25,North,360,0.0,0.0,50,0.00,,---,0.01,VWS V14.01,2013-07-14 21:21:00,
2013-07-14 17:26:00,84.3,63.7,30.24,NE,49,0.0,0.0,50,0.00,,---,0.01,VWS V14.01,2013-07-14 21:26:00,
2013-07-14 17:31:00,84.3,63.1,30.24,NNE,22,0.0,0.0,49,0.00,,---,0.01,VWS V14.01,2013-07-14 21:31:00,
2013-07-14 17:36:00,84.5,62.1,30.24,North,350,0.0,0.0,47,0.00,,---,0.01,VWS V14.01,2013-07-14 21:36:00,
2013-07-14 17:41:00,84.5,63.8,30.24,North,360,0.0,0.0,50,0.00,,---,0.01,VWS V14.01,2013-07-14 21:41:00,
2013-07-14 17:46:00,84.9,64.2,30.24,North,5,0.0,0.0,50,0.00,,---,0.01,VWS V14.01,2013-07-14 21:46:00,
2013-07-14 17:51:00,84.5,62.7,30.24,NNE,17,0.0,0.0,48,0.00,,---,0.01,VWS V14.01,2013-07-14 21:51:00,
2013-07-14 17:56:00,84.5,64.4,30.24,NNE,12,0.0,0.0,51,0.00,,---,0.01,VWS V14.01,2013-07-14 21:56:00,
2013-07-14 18:01:00,84.5,63.8,30.24,North,355,0.0,0.0,50,0.00,,---,0.01,VWS V14.01,2013-07-14 22:01:00,
2013-07-14 18:06:00,84.5,63.8,30.24,NNE,17,0.0,0.0,50,0.00,,---,0.01,VWS V14.01,2013-07-14 22:06:00,
2013-07-14 18:11:00,84.3,64.2,30.23,North,360,0.0,0.0,51,0.00,,---,0.01,VWS V14.01,2013-07-14 22:11:00,
2013-07-14 18:16:00,84.7,64.0,30.23,NNE,28,0.0,0.0,50,0.00,,---,0.01,VWS V14.01,2013-07-14 22:16:00,
2013-07-14 18:21:00,84.3,64.8,30.23,NE,36,0.0,0.0,52,0.00,,---,0.01,VWS V14.01,2013-07-14 22:21:00,
2013-07-14 18:26:00,84.1,64.0,30.23,NE,40,0.0,0.0,51,0.00,,---,0.01,VWS V14.01,2013-07-14 22:26:00,
2013-07-14 18:31:00,83.8,64.9,30.23,NE,42,0.0,0.0,53,0.00,,---,0.01,VWS V14.01,2013-07-14 22:31:00,
2013-07-14 18:36:00,83.6,64.1,30.23,NE,44,0.0,0.0,52,0.00,,---,0.01,VWS V14.01,2013-07-14 22:36:00,
2013-07-14 18:41:00,83.4,64.0,30.23,NE,36,0.0,0.0,52,0.00,,---,0.01,VWS V14.01,2013-07-14 22:41:00,
2013-07-14 18:46:00,83.4,64.5,30.23,North,360,0.0,0.0,53,0.00,,---,0.01,VWS V14.01,2013-07-14 22:46:00,
2013-07-14 18:52:00,83.4,64.5,30.23,NNE,21,0.0,0.0,53,0.00,,---,0.01,VWS V14.01,2013-07-14 22:52:00,
2013-07-14 18:56:00,83.4,64.0,30.23,North,5,0.0,0.0,52,0.00,,---,0.01,VWS V14.01,2013-07-14 22:56:00,
2013-07-14 19:01:00,83.4,65.6,30.23,North,5,0.0,0.0,55,0.00,,---,0.01,VWS V14.01,2013-07-14 23:01:00,
2013-07-14 19:06:00,83.4,64.0,30.23,NNE,30,0.0,0.0,52,0.00,,---,0.01,VWS V14.01,2013-07-14 23:06:00,
2013-07-14 19:12:00,83.0,64.7,30.23,NE,38,0.0,0.0,54,0.00,,---,0.01,VWS V14.01,2013-07-14 23:12:00,
2013-07-14 19:17:00,82.8,63.9,30.23,NNE,26,0.0,0.0,53,0.00,,---,0.01,VWS V14.01,2013-07-14 23:17:00,
2013-07-14 19:22:00,82.4,64.6,30.24,NNE,33,0.0,0.0,55,0.00,,---,0.01,VWS V14.01,2013-07-14 23:22:00,
2013-07-14 19:27:00,82.2,64.4,30.23,NE,34,0.0,0.0,55,0.00,,---,0.01,VWS V14.01,2013-07-14 23:27:00,
2013-07-14 19:32:00,82.0,64.8,30.24,NNE,18,0.0,0.0,56,0.00,,---,0.01,VWS V14.01,2013-07-14 23:32:00,
2013-07-14 19:37:00,82.0,64.8,30.23,NNE,28,0.0,0.0,56,0.00,,---,0.01,VWS V14.01,2013-07-14 23:37:00,
2013-07-14 19:42:00,81.8,64.6,30.23,NNE,28,0.0,0.0,56,0.00,,---,0.01,VWS V14.01,2013-07-14 23:42:00,
2013-07-14 19:47:00,81.8,65.6,30.23,NNE,28,0.0,0.0,58,0.00,,---,0.01,VWS V14.01,2013-07-14 23:47:00,
2013-07-14 19:52:00,81.4,65.2,30.23,NE,38,0.0,0.0,58,0.00,,---,0.01,VWS V14.01,2013-07-14 23:52:00,
2013-07-14 19:57:00,81.2,65.0,30.23,NNE,29,0.0,0.0,58,0.00,,---,0.01,VWS V14.01,2013-07-14 23:57:00,
2013-07-14 20:02:00,80.5,64.9,30.23,NE,39,0.0,0.0,59,0.00,,---,0.01,VWS V14.01,2013-07-15 00:02:00,
2013-07-14 20:07:00,79.9,64.8,30.23,NE,35,0.0,0.0,60,0.00,,---,0.01,VWS V14.01,2013-07-15 00:07:00,
2013-07-14 20:12:00,79.6,64.5,30.23,NE,42,0.0,0.0,60,0.00,,---,0.01,VWS V14.01,2013-07-15 00:12:00,
2013-07-14 20:17:00,79.4,64.3,30.23,NNE,31,0.0,0.0,60,0.00,,---,0.01,VWS V14.01,2013-07-15 00:17:00,
2013-07-14 20:22:00,79.0,64.9,30.24,NE,34,0.0,0.0,62,0.00,,---,0.01,VWS V14.01,2013-07-15 00:22:00,
2013-07-14 20:27:00,78.6,64.0,30.23,NE,34,0.0,0.0,61,0.00,,---,0.01,VWS V14.01,2013-07-15 00:27:00,
2013-07-14 20:32:00,78.3,64.2,30.23,NE,40,0.0,0.0,62,0.00,,---,0.01,VWS V14.01,2013-07-15 00:32:00,
2013-07-14 20:37:00,77.9,63.8,30.24,NNE,28,0.0,0.0,62,0.00,,---,0.01,VWS V14.01,2013-07-15 00:37:00,
2013-07-14 20:42:00,77.6,63.6,30.24,NNE,29,0.0,0.0,62,0.00,,---,0.01,VWS V14.01,2013-07-15 00:42:00,
2013-07-14 20:47:00,77.4,63.8,30.24,NNE,29,0.0,0.0,63,0.00,,---,0.01,VWS V14.01,2013-07-15 00:47:00,
2013-07-14 20:52:00,77.0,64.3,30.24,NNE,29,0.0,0.0,65,0.00,,---,0.01,VWS V14.01,2013-07-15 00:52:00,
2013-07-14 20:57:00,76.7,64.5,30.24,NNE,29,0.0,0.0,66,0.00,,---,0.01,VWS V14.01,2013-07-15 00:57:00,
2013-07-14 21:02:00,76.3,64.1,30.24,NNE,29,0.0,0.0,66,0.00,,---,0.01,VWS V14.01,2013-07-15 01:02:00,
2013-07-14 21:07:00,76.1,64.4,30.24,NNE,29,0.0,0.0,67,0.00,,---,0.01,VWS V14.01,2013-07-15 01:07:00,
2013-07-14 21:12:00,75.8,64.1,30.24,NNE,29,0.0,0.0,67,0.00,,---,0.01,VWS V14.01,2013-07-15 01:12:00,
2013-07-14 21:17:00,75.4,64.1,30.24,NNE,29,0.0,0.0,68,0.00,,---,0.01,VWS V14.01,2013-07-15 01:17:00,
2013-07-14 21:22:00,75.3,64.0,30.24,NNE,29,0.0,0.0,68,0.00,,---,0.01,VWS V14.01,2013-07-15 01:22:00,
2013-07-14 21:27:00,74.9,64.5,30.24,NNE,29,0.0,0.0,70,0.00,,---,0.01,VWS V14.01,2013-07-15 01:27:00,
2013-07-14 21:32:00,74.7,64.3,30.25,NNE,29,0.0,0.0,70,0.00,,---,0.01,VWS V14.01,2013-07-15 01:32:00,
2013-07-14 21:37:00,74.4,64.0,30.25,NNE,29,0.0,0.0,70,0.00,,---,0.01,VWS V14.01,2013-07-15 01:37:00,
2013-07-14 21:42:00,74.2,63.8,30.25,NNE,29,0.0,0.0,70,0.00,,---,0.01,VWS V14.01,2013-07-15 01:42:00,
2013-07-14 21:47:00,73.9,63.9,30.25,NNE,29,0.0,0.0,71,0.00,,---,0.01,VWS V14.01,2013-07-15 01:47:00,
2013-07-14 21:52:00,73.5,63.5,30.25,NNE,29,0.0,0.0,71,0.00,,---,0.01,VWS V14.01,2013-07-15 01:52:00,
2013-07-14 21:57:00,73.2,63.6,30.25,NNE,29,0.0,0.0,72,0.00,,---,0.01,VWS V14.01,2013-07-15 01:57:00,
2013-07-14 22:02:00,72.8,63.7,30.26,NNE,29,0.0,0.0,73,0.00,,---,0.01,VWS V14.01,2013-07-15 02:02:00,
2013-07-14 22:07:00,72.5,63.8,30.26,NNE,29,0.0,0.0,74,0.00,,---,0.01,VWS V14.01,2013-07-15 02:07:00,
2013-07-14 22:12:00,72.0,63.3,30.26,NNE,29,0.0,0.0,74,0.00,,---,0.01,VWS V14.01,2013-07-15 02:12:00,
2013-07-14 22:17:00,71.6,62.9,30.27,NNE,29,0.0,0.0,74,0.00,,---,0.01,VWS V14.01,2013-07-15 02:17:00,
2013-07-14 22:23:00,71.3,63.7,30.27,NNE,29,0.0,0.0,77,0.00,,---,0.01,VWS V14.01,2013-07-15 02:23:00,
2013-07-14 22:28:00,70.9,63.3,30.27,NNE,29,0.0,0.0,77,0.00,,---,0.01,VWS V14.01,2013-07-15 02:28:00,
2013-07-14 22:33:00,70.8,63.2,30.27,NNE,29,0.0,0.0,77,0.00,,---,0.01,VWS V14.01,2013-07-15 02:33:00,
2013-07-14 22:38:00,70.6,63.4,30.27,NNE,29,0.0,0.0,78,0.00,,---,0.01,VWS V14.01,2013-07-15 02:38:00,
2013-07-14 22:43:00,70.3,63.1,30.27,NNE,29,0.0,0.0,78,0.00,,---,0.01,VWS V14.01,2013-07-15 02:43:00,
2013-07-14 22:48:00,70.1,62.9,30.27,NNE,29,0.0,0.0,78,0.00,,---,0.01,VWS V14.01,2013-07-15 02:48:00,
2013-07-14 22:53:00,69.9,63.1,30.27,NNE,29,0.0,0.0,79,0.00,,---,0.01,VWS V14.01,2013-07-15 02:53:00,
2013-07-14 22:58:00,69.8,63.0,30.27,NNE,29,0.0,0.0,79,0.00,,---,0.01,VWS V14.01,2013-07-15 02:58:00,
2013-07-14 23:03:00,69.6,63.2,30.27,NNE,29,0.0,0.0,80,0.00,,---,0.01,VWS V14.01,2013-07-15 03:03:00,
2013-07-14 23:08:00,69.4,63.0,30.27,NNE,29,0.0,0.0,80,0.00,,---,0.01,VWS V14.01,2013-07-15 03:08:00,
2013-07-14 23:13:00,69.3,63.2,30.27,NNE,29,0.0,0.0,81,0.00,,---,0.01,VWS V14.01,2013-07-15 03:13:00,
2013-07-14 23:18:00,69.1,63.4,30.27,NNE,29,0.0,0.0,82,0.00,,---,0.01,VWS V14.01,2013-07-15 03:18:00,
2013-07-14 23:23:00,68.9,63.2,30.27,NNE,29,0.0,0.0,82,0.00,,---,0.01,VWS V14.01,2013-07-15 03:23:00,
2013-07-14 23:28:00,68.9,63.2,30.27,NNE,29,0.0,0.0,82,0.00,,---,0.01,VWS V14.01,2013-07-15 03:28:00,
2013-07-14 23:33:00,68.9,64.2,30.27,NNE,29,0.0,0.0,85,0.00,,---,0.01,VWS V14.01,2013-07-15 03:33:00,
2013-07-14 23:38:00,68.9,64.6,30.27,NNE,29,0.0,0.0,86,0.00,,---,0.01,VWS V14.01,2013-07-15 03:38:00,
2013-07-14 23:43:00,68.8,64.1,30.27,NNE,29,0.0,0.0,85,0.00,,---,0.01,VWS V14.01,2013-07-15 03:43:00,
2013-07-14 23:48:00,68.8,64.1,30.27,NNE,29,0.0,0.0,85,0.00,,---,0.01,VWS V14.01,2013-07-15 03:48:00,
2013-07-14 23:53:00,68.6,63.6,30.27,NNE,29,0.0,0.0,84,0.00,,---,0.01,VWS V14.01,2013-07-15 03:53:00,
2013-07-14 23:58:00,68.6,63.9,30.27,NNE,29,0.0,0.0,85,0.00,,---,0.01,VWS V14.01,2013-07-15 03:58:00,